Date String (YYYY-MM-DD hh:mm:ss) UTC,Instrument flags,Ambient pressure (hPa),Sample flow (lpm),Bypass flow (lpm),Sample temperature (°C),Ambient temperature (°C),ASC tube jacket temperature (°C),LED temperature (°C),Box temperature (°C),Sample RH (%),Span deviation,Mass concentration (μg/m³),Mass concentration (μg/m³),Mass concentration (μg/m³)
DateTimeUTC,F1_M11,P_M11,Q1_M11,Q2_M11,T1_M11,T2_M11,T3_M11,T4_M11,T5_M11,U1_M11,ZSPAN_M11,X0_M11,X2_M11,X1_M11
2022-09-27 13:00:00,,0833.5,5.00,0.00,30.1,28.5,00.0,38.9,31.9,14.7,0000.0,0009.81,0003.87,0003.22
2022-09-27 13:01:00,,0833.5,5.00,0.00,30.1,28.4,00.0,38.9,31.9,14.7,0000.0,0009.87,0003.86,0003.21
2022-09-27 13:02:00,,0833.5,5.01,0.00,30.1,28.4,00.0,38.9,31.9,14.6,0000.0,0009.88,0003.83,0003.20
2022-09-27 13:03:00,,0833.6,4.99,0.00,30.1,28.4,00.0,38.9,31.9,14.6,0000.0,0009.84,0003.82,0003.20
2022-09-27 13:04:00,,0833.6,5.01,0.00,30.1,28.4,00.0,38.9,31.9,14.6,0000.0,0009.77,0003.82,0003.20
2022-09-27 13:05:00,,0833.5,4.99,0.00,30.1,28.4,00.0,38.9,31.9,14.6,0000.0,0009.87,0003.82,0003.20
2022-09-27 13:06:00,,0833.6,5.02,0.00,30.1,28.4,00.0,38.9,31.9,14.6,0000.0,0009.71,0003.79,0003.20
2022-09-27 13:07:00,,0833.5,4.99,0.00,30.1,28.4,00.0,38.9,31.9,14.5,0000.0,0010.25,0003.79,0003.21
2022-09-27 13:08:00,,0833.5,4.99,0.00,30.1,28.5,00.0,38.9,31.9,14.6,0000.0,0010.22,0003.79,0003.22
2022-09-27 13:09:00,,0833.5,5.01,0.00,30.1,28.5,00.0,38.9,31.9,14.6,0000.0,0009.79,0003.77,0003.23
2022-09-27 13:10:00,,0833.5,4.99,0.00,30.1,28.4,00.0,38.9,31.9,14.7,0000.0,0009.52,0003.75,0003.23
2022-09-27 13:11:00,,0833.5,5.01,0.00,30.1,28.4,00.0,38.9,31.9,14.7,0000.0,0009.42,0003.74,0003.24
2022-09-27 13:12:00,,0833.6,4.98,0.00,30.1,28.4,00.0,38.9,31.9,14.7,0000.0,0008.83,0003.72,0003.24
2022-09-27 13:13:00,,0833.6,5.01,0.00,30.1,28.4,00.0,38.9,31.9,14.7,0000.0,0008.60,0003.70,0003.25
2022-09-27 13:14:00,,0833.5,4.99,0.00,30.1,28.4,00.0,38.9,31.9,14.7,0000.0,0008.49,0003.69,0003.25
2022-09-27 13:15:00,,0833.6,5.01,0.00,30.1,28.4,00.0,38.9,31.9,14.7,0000.0,0008.54,0003.68,0003.25
2022-09-27 13:16:00,,0833.5,4.99,0.00,30.1,28.4,00.0,38.9,31.9,14.7,0000.0,0009.70,0003.67,0003.26
2022-09-27 13:17:00,,0833.6,5.00,0.00,30.1,28.4,00.0,38.9,31.9,14.8,0000.0,0010.27,0003.71,0003.26
2022-09-27 13:18:00,,0833.6,5.00,0.00,30.1,28.4,00.0,38.9,31.9,14.7,0000.0,0010.12,0003.74,0003.26
2022-09-27 13:19:00,,0833.6,5.00,0.00,30.1,28.4,00.0,38.9,31.9,14.7,0000.0,0010.37,0003.74,0003.25
2022-09-27 13:20:00,,0833.6,5.00,0.00,30.1,28.4,00.0,38.9,31.9,14.8,0000.0,0010.80,0003.74,0003.25
2022-09-27 13:21:00,,0833.6,4.99,0.00,30.1,28.4,00.0,38.9,31.9,14.8,0000.0,0011.62,0003.72,0003.25
2022-09-27 13:22:00,,0833.6,5.02,0.00,30.1,28.5,00.0,38.9,31.9,14.9,0000.0,0012.03,0003.74,0003.24
2022-09-27 13:23:00,,0833.6,4.99,0.00,30.1,28.5,00.0,38.9,31.9,14.7,0000.0,0012.11,0003.76,0003.24
2022-09-27 13:24:00,,0833.6,4.99,0.00,30.1,28.4,00.0,38.9,31.9,14.8,0000.0,0012.67,0003.81,0003.24
2022-09-27 13:25:00,,0833.6,5.01,0.00,30.1,28.4,00.0,38.9,31.9,14.8,0000.0,0013.20,0003.80,0003.23
2022-09-27 13:26:00,,0833.6,4.99,0.00,30.1,28.4,00.0,38.9,31.9,14.8,0000.0,0013.19,0003.78,0003.23
2022-09-27 13:27:00,,0833.6,5.01,0.00,30.1,28.4,00.0,38.9,31.9,15.0,0000.0,0012.42,0003.81,0003.23
2022-09-27 13:28:00,,0833.6,5.00,0.00,30.1,28.4,00.0,38.9,31.9,15.0,0000.0,0010.81,0003.81,0003.22
2022-09-27 13:29:00,,0833.6,4.99,0.00,30.1,28.5,00.0,38.9,31.9,15.1,0000.0,0010.25,0003.80,0003.23
2022-09-27 13:30:00,,0833.6,5.01,0.00,30.1,28.5,00.0,38.9,31.9,14.9,0000.0,0009.82,0003.77,0003.22
2022-09-27 13:31:00,,0833.6,4.99,0.00,30.1,28.5,00.0,38.9,31.9,15.0,0000.0,0009.61,0003.77,0003.22
2022-09-27 13:32:00,,0833.7,5.00,0.00,30.1,28.5,00.0,38.9,31.9,14.8,0000.0,0008.80,0003.79,0003.23
2022-09-27 13:33:00,,0833.6,5.01,0.00,30.1,28.4,00.0,38.9,31.9,14.8,0000.0,0008.59,0003.79,0003.23
2022-09-27 13:34:00,,0833.6,4.99,0.00,30.1,28.5,00.0,38.9,31.9,14.9,0000.0,0008.62,0003.77,0003.23
2022-09-27 13:35:00,,0833.6,5.01,0.00,30.1,28.5,00.0,38.9,31.9,15.0,0000.0,0008.33,0003.75,0003.22
2022-09-27 13:36:00,,0833.6,5.00,0.00,30.1,28.5,00.0,38.9,31.9,14.9,0000.0,0007.68,0003.73,0003.23
2022-09-27 13:37:00,,0833.6,4.99,0.00,30.1,28.5,00.0,38.9,31.9,15.0,0000.0,0007.58,0003.72,0003.22
2022-09-27 13:38:00,,0833.6,5.01,0.00,30.1,28.5,00.0,38.9,31.9,15.1,0000.0,0007.54,0003.68,0003.21
2022-09-27 13:39:00,,0833.7,4.99,0.00,30.1,28.5,00.0,38.9,31.9,15.3,0000.0,0008.35,0003.66,0003.19
2022-09-27 13:40:00,,0833.6,4.99,0.00,30.1,28.5,00.0,38.9,31.9,15.1,0000.0,0008.95,0003.66,0003.18
2022-09-27 13:41:00,,0833.6,5.01,0.00,30.1,28.5,00.0,38.9,31.9,15.5,0000.0,0009.56,0003.70,0003.17
2022-09-27 13:42:00,,0833.6,4.99,0.00,30.1,28.6,00.0,38.9,31.9,15.8,0000.0,0009.71,0003.70,0003.17
2022-09-27 13:43:00,,0833.6,5.01,0.00,30.1,28.6,00.0,38.9,31.9,15.3,0000.0,0009.49,0003.66,0003.15
2022-09-27 13:44:00,,0833.7,5.00,0.00,30.1,28.6,00.0,38.9,32.0,15.4,0000.0,0009.80,0003.64,0003.13
2022-09-27 13:45:00,,0833.6,4.99,0.00,30.1,28.6,00.0,38.9,32.0,15.6,0000.0,0010.13,0003.65,0003.13
2022-09-27 13:46:00,,0833.6,5.01,0.00,30.1,28.6,00.0,38.9,31.9,15.5,0000.0,0010.08,0003.69,0003.13
2022-09-27 13:47:00,,0833.7,4.99,0.00,30.1,28.6,00.0,38.9,31.9,15.5,0000.0,0010.50,0003.72,0003.12
2022-09-27 13:48:00,,0833.7,5.00,0.00,30.1,28.6,00.0,38.9,32.0,15.8,0000.0,0010.97,0003.76,0003.12
2022-09-27 13:49:00,,0833.6,5.00,0.00,30.1,28.6,00.0,38.9,32.0,15.6,0000.0,0011.01,0003.79,0003.13
2022-09-27 13:50:00,,0833.6,5.00,0.00,30.1,28.6,00.0,38.9,32.0,15.8,0000.0,0010.39,0003.79,0003.14
2022-09-27 13:51:00,,0833.6,5.01,0.00,30.1,28.6,00.0,38.9,32.0,15.9,0000.0,0009.96,0003.80,0003.14
2022-09-27 13:52:00,,0833.7,5.00,0.00,30.1,28.6,00.0,38.9,32.0,16.0,0000.0,0010.71,0003.85,0003.14
2022-09-27 13:53:00,,0833.7,5.01,0.00,30.2,28.7,00.0,38.9,32.0,15.8,0000.0,0011.45,0003.92,0003.14
2022-09-27 13:54:00,,0833.6,5.00,0.00,30.2,28.7,00.0,38.9,32.0,16.0,0000.0,0012.86,0004.02,0003.14
2022-09-27 13:55:00,,0833.7,4.99,0.00,30.2,28.7,00.0,38.9,32.0,16.0,0000.0,0012.39,0004.03,0003.14
2022-09-27 13:56:00,,0833.7,5.01,0.00,30.2,28.7,00.0,38.9,32.0,16.0,0000.0,0011.84,0004.01,0003.14
2022-09-27 13:57:00,,0833.7,4.99,0.00,30.2,28.7,00.0,38.9,32.0,15.8,0000.0,0011.76,0003.95,0003.13
2022-09-27 13:58:00,,0833.7,5.00,0.00,30.2,28.7,00.0,38.9,32.0,16.2,0000.0,0011.54,0003.95,0003.14
2022-09-27 13:59:00,,0833.7,5.01,0.00,30.2,28.7,00.0,38.9,32.0,16.3,0000.0,0011.17,0003.94,0003.13
